Wind_Speed
18 16 14 15 17 17 18 21 21 21 21 20 21 20 18 17 17 17 19 19 19 19 19 18 17 16 16 16 15 14 13 13 12 12 11 11 10 10 10 10 9 9 9 9 8 8 8 8 7 7 7 6 6 6 6 6 6 6 6 6 6 5 5
18 20 18 16 17 18 18 19 20 20 20 21 24 23 21 20 18 18 19 20 21 21 21 20 19 18 17 17 16 16 15 14 13 12 12 11 11 10 10 10 10 9 9 9 9 9 9 8 8 8 8 8 7 7 8 7 7 7 7 6 6 6 6
17 19 20 18 18 18 19 20 20 20 20 21 25 26 24 22 20 19 19 21 22 23 22 22 20 19 18 18 17 17 16 15 15 14 13 12 11 10 9 9 9 9 10 10 10 9 9 9 8 8 8 8 8 9 8 8 7 7 7 6 6 6 6
17 18 19 20 19 19 19 20 20 21 21 21 24 27 26 24 23 23 21 21 22 23 24 24 23 21 20 19 18 18 17 16 16 15 14 13 11 10 10 9 9 9 9 9 9 9 9 9 9 9 9 9 9 9 9 8 8 7 7 7 7 6 6
19 19 19 20 22 21 20 20 20 21 23 22 22 25 27 26 25 25 24 22 22 23 25 26 24 23 21 20 19 18 18 17 17 16 14 13 12 12 11 10 10 9 9 9 9 8 8 9 9 9 9 9 9 9 9 9 8 7 7 7 6 6 6
19 19 19 20 21 22 22 21 21 21 23 24 22 23 26 27 27 27 27 25 24 24 26 26 25 23 22 21 20 19 18 18 17 17 16 15 14 14 13 11 10 10 10 10 10 10 9 9 9 9 10 10 10 10 9 9 8 7 7 6 6 6 6
20 19 19 19 20 22 23 24 23 22 23 23 23 23 24 26 29 30 28 27 26 25 25 25 24 25 25 23 22 20 19 19 19 18 18 17 16 15 14 12 11 11 11 11 11 12 12 11 11 11 11 11 11 11 10 9 8 8 7 7 6 6 5
20 20 20 20 19 21 23 24 25 24 23 23 23 23 23 24 27 31 30 29 28 27 25 24 24 26 28 26 25 23 22 21 20 19 18 18 17 17 15 14 13 12 11 12 12 13 13 13 13 13 13 12 12 11 11 10 9 8 7 6 6 5 5
22 22 22 21 20 19 21 23 25 26 25 24 23 24 23 23 24 28 32 31 29 28 27 26 25 27 29 29 28 26 25 24 22 21 20 19 18 18 17 16 15 13 13 13 12 12 14 15 15 15 14 14 13 13 13 12 11 9 8 6 6 5 5
23 24 24 23 21 20 19 21 23 25 26 25 24 24 24 23 23 27 32 33 31 30 30 29 27 27 28 29 29 28 27 25 25 23 22 21 20 19 18 17 17 16 15 14 13 13 13 14 15 15 15 16 16 16 16 15 13 12 10 9 8 7 6
23 24 25 25 24 23 20 19 20 23 26 26 25 24 24 23 23 25 30 34 34 32 32 31 29 28 28 29 30 29 28 27 26 25 24 23 23 22 21 19 18 18 17 16 15 14 14 14 14 16 17 18 18 18 17 15 14 13 13 12 11 9 8
22 23 25 25 25 24 23 20 18 19 23 26 26 25 25 24 23 22 26 32 35 35 34 33 32 31 29 29 30 30 29 29 28 27 27 26 26 25 24 23 21 20 20 19 18 17 16 15 16 17 18 19 19 18 17 15 15 15 14 13 12 11 9
21 23 24 25 25 24 23 22 19 19 22 25 26 26 26 25 24 23 24 29 33 35 36 35 34 33 31 30 31 31 31 30 29 29 28 28 28 28 27 26 25 24 23 22 21 20 19 18 19 20 19 19 19 19 18 16 16 16 15 14 13 13 12
21 22 24 25 25 24 23 22 20 20 22 24 25 26 26 26 26 25 25 27 30 34 38 39 37 35 33 31 31 31 32 32 32 31 30 30 30 30 29 28 27 27 26 25 24 23 22 22 23 22 21 21 21 20 18 17 18 18 17 15 15 15 14
21 22 24 25 25 24 24 23 21 20 22 24 25 25 27 27 27 26 26 27 28 31 37 41 39 36 35 33 32 32 32 32 32 32 31 31 31 31 30 30 30 29 29 28 27 26 26 25 25 24 23 23 22 20 19 18 19 20 19 17 16 16 15
20 21 24 26 26 26 25 25 24 22 22 23 24 25 27 27 28 28 28 27 27 28 34 40 40 38 37 35 34 34 33 31 31 32 31 31 31 31 31 31 31 31 31 30 29 29 28 28 27 26 26 25 24 22 20 20 20 21 20 19 18 18 17
19 20 22 25 27 27 26 26 26 25 24 23 24 25 26 27 28 28 29 28 26 27 32 40 41 39 38 37 35 34 32 31 31 31 31 30 30 31 31 31 32 32 32 31 30 29 29 28 28 28 28 27 25 24 22 22 22 22 21 21 20 20 20
18 19 21 23 26 28 28 27 27 27 27 25 24 23 25 27 27 28 29 28 26 26 31 39 42 40 39 38 36 34 33 33 32 31 31 31 31 31 32 32 32 32 31 31 30 29 28 29 29 29 29 28 27 26 25 24 23 22 21 22 22 22 22
19 19 20 22 24 26 28 28 27 27 28 27 25 23 24 26 27 27 28 28 26 26 30 38 41 40 40 38 36 35 35 35 34 33 33 34 35 35 35 34 33 32 31 31 30 30 29 29 30 30 30 29 28 27 26 24 23 23 22 23 23 23 23
20 20 20 21 22 24 27 28 27 27 28 28 26 24 23 25 26 27 26 26 25 23 28 38 40 38 39 38 37 38 38 37 36 35 35 36 38 38 37 35 34 32 30 31 32 32 31 30 31 32 32 30 28 28 26 25 24 24 24 24 24 24 25
21 21 21 21 21 22 25 27 27 27 28 28 27 25 23 24 25 26 26 26 25 22 25 35 38 36 35 36 37 38 37 36 35 35 36 37 38 38 37 36 34 32 32 33 34 34 33 32 32 34 33 31 29 29 27 26 26 26 26 26 26 27 28
22 21 21 21 21 21 23 25 26 26 27 28 27 25 23 23 24 25 25 26 26 24 23 28 32 33 34 35 36 36 36 36 37 38 38 37 37 37 38 37 35 33 34 35 35 35 36 36 34 33 32 31 30 30 29 28 27 26 26 27 27 28 30
21 21 21 21 21 21 22 23 24 25 26 27 27 26 24 23 23 24 24 25 25 25 24 24 25 28 32 34 33 33 33 35 37 39 40 40 39 37 38 38 37 37 37 37 36 37 39 38 35 33 33 33 32 32 31 29 27 26 27 28 28 30 31
21 21 20 20 20 21 21 21 22 23 25 26 26 26 25 24 23 23 24 23 23 24 24 23 24 26 28 29 30 30 32 34 36 36 38 39 40 40 40 40 39 39 39 39 37 38 39 39 36 33 33 34 34 34 33 30 28 28 29 29 30 30 30
21 21 20 20 19 20 20 20 21 22 24 25 25 25 26 25 23 22 22 22 22 23 22 22 23 25 25 27 28 29 30 33 35 35 36 39 40 41 42 42 40 40 42 42 39 38 39 39 38 35 34 35 34 34 33 31 30 29 29 29 30 31 31
20 20 21 20 18 18 19 20 20 21 22 23 23 24 25 25 24 22 20 19 19 19 19 20 21 22 22 24 25 26 27 29 30 33 37 40 41 41 42 44 45 43 43 44 42 39 39 40 39 38 36 35 33 32 32 32 31 30 30 30 31 32 32
20 20 20 19 18 18 19 20 20 20 21 21 21 22 23 24 23 20 18 16 16 16 17 19 20 20 20 21 21 22 23 24 25 30 35 35 34 35 39 44 47 46 45 46 44 41 40 42 41 40 37 34 33 33 34 34 33 32 33 33 34 34 34
20 20 20 19 19 19 19 19 19 18 19 20 20 20 22 22 20 17 15 14 14 15 15 16 18 19 21 21 21 20 20 21 24 29 30 26 25 27 30 35 41 43 46 47 45 41 40 40 39 38 37 36 35 36 36 36 35 35 35 35 36 36 36
20 19 19 19 19 19 19 20 20 19 18 19 20 19 20 19 17 15 14 14 15 15 14 14 15 18 20 21 21 22 23 23 25 28 28 24 23 23 25 28 32 37 41 43 41 39 38 37 36 36 35 35 34 34 33 33 33 33 33 33 34 34 35
20 19 18 19 19 19 19 19 21 22 19 18 18 18 17 16 15 15 15 15 16 16 15 14 13 13 15 18 19 20 23 25 27 28 30 29 26 23 22 23 24 26 30 34 35 34 32 31 31 30 29 29 29 29 29 29 30 30 30 31 31 31 32
19 18 18 18 18 18 17 15 17 21 21 19 18 17 16 15 14 14 15 16 16 15 15 15 14 11 11 13 13 12 13 17 17 17 18 19 18 17 17 16 15 14 16 21 24 27 26 24 23 25 26 26 26 25 26 27 28 28 29 30 31 31 31
19 17 17 17 16 16 16 14 12 15 17 17 17 16 16 15 14 14 14 13 11 11 12 14 15 13 11 10 11 11 11 12 13 11 9 9 11 12 14 16 16 16 16 16 16 18 19 19 18 20 21 22 22 23 24 25 26 26 27 28 29 30 30
18 16 16 15 15 15 16 15 14 13 12 12 13 14 14 14 15 16 15 12 9 9 11 12 11 12 12 10 10 13 13 13 13 13 11 10 9 10 12 15 17 17 17 17 16 15 16 16 15 15 16 17 19 20 22 23 25 26 26 26 28 29 30
15 14 14 14 14 15 15 15 16 15 12 12 13 13 14 15 15 17 17 15 12 11 10 10 8 9 10 8 7 9 11 12 12 11 11 10 10 9 10 11 12 13 15 15 14 13 13 13 13 14 14 16 17 18 20 21 23 24 24 25 25 26 28
13 13 13 13 13 13 14 14 15 15 14 14 15 15 15 16 16 16 16 16 15 12 10 9 7 6 7 6 6 5 6 7 8 8 8 8 8 7 6 6 7 8 9 9 10 10 10 11 12 13 14 15 17 18 19 20 20 21 21 21 22 23 23
14 12 13 13 13 13 13 15 16 16 16 17 17 16 16 16 16 16 15 14 14 12 11 9 7 6 5 5 5 4 4 4 5 4 4 4 5 5 5 5 5 6 7 7 8 9 9 10 12 13 14 15 16 17 18 18 19 19 20 20 21 21 22
14 13 13 14 14 13 13 15 18 18 18 19 18 17 16 15 15 15 14 13 11 10 9 9 7 6 5 4 4 5 5 5 6 5 5 5 5 6 6 6 7 7 8 8 9 9 10 11 11 12 13 14 15 16 17 17 18 18 19 20 20 21 21
12 12 13 14 15 14 12 14 18 21 20 19 18 17 15 15 14 14 13 12 11 10 10 9 8 7 6 6 6 6 7 7 8 8 8 8 8 8 8 8 8 9 9 9 10 10 11 11 12 13 13 14 15 15 16 16 17 17 18 19 19 20 21
Wind_Direction
248 253 257 247 238 235 236 235 231 235 236 220 213 215 209 206 209 204 201 199 197 197 194 194 198 199 197 194 192 194 197 200 202 200 199 200 201 201 199 199 198 199 201 200 197 197 198 203 209 213 217 222 228 227 223 218 214 208 203 206 213 220 230
250 252 256 253 245 241 241 240 235 239 242 225 214 215 211 208 212 211 208 203 200 201 200 197 198 202 203 201 198 198 199 202 204 204 201 201 203 203 201 201 200 199 200 201 200 199 199 203 208 210 212 216 221 221 217 213 209 203 199 203 208 214 220
250 249 250 250 249 247 245 243 237 236 241 233 222 217 213 208 208 211 215 211 205 203 204 202 201 202 206 206 204 203 203 204 206 206 204 203 203 204 203 204 204 202 201 201 202 201 200 203 206 207 208 210 212 211 207 204 201 196 193 197 203 209 212
264 256 249 244 244 246 247 247 242 237 239 239 233 225 218 213 208 207 213 217 213 208 207 206 204 202 205 209 209 208 207 208 209 209 208 206 206 205 206 207 208 208 206 203 202 201 200 200 203 203 201 200 201 199 193 188 185 183 183 185 192 200 206
273 269 261 250 243 241 244 246 246 243 242 245 246 237 226 220 216 211 210 213 216 215 213 211 208 205 205 209 213 214 213 214 215 214 212 210 209 210 211 210 209 211 208 204 202 202 201 200 199 197 193 190 189 186 181 177 177 179 184 188 192 202 211
269 270 269 262 253 245 243 245 246 247 246 249 252 244 233 229 225 220 216 213 214 217 217 215 214 212 208 209 213 217 219 220 220 219 217 214 214 215 216 213 211 211 210 207 205 203 202 201 199 194 190 187 185 184 182 182 185 191 200 209 214 218 224
265 266 267 266 263 256 249 247 247 248 249 250 250 246 244 243 234 225 222 219 216 216 217 217 219 219 214 211 212 215 219 223 226 225 222 219 219 220 220 219 218 216 215 212 209 207 205 202 201 199 196 194 193 193 194 197 202 208 214 224 232 238 246
262 264 264 264 265 263 258 252 249 248 249 250 251 250 254 256 245 231 225 223 220 217 217 219 222 223 218 214 211 212 215 220 226 228 228 226 226 226 226 226 225 224 222 220 216 213 212 209 208 207 206 205 207 208 210 214 218 222 229 241 252 257 262
262 262 262 262 262 262 260 257 252 249 248 249 250 252 255 260 255 240 230 226 223 220 219 219 222 224 222 217 212 212 213 216 220 226 229 230 232 233 232 232 231 230 229 228 224 220 218 217 217 216 216 217 219 222 223 224 227 231 238 249 255 257 258
265 261 260 260 260 259 258 257 254 251 249 249 249 250 252 258 260 249 236 229 224 222 222 221 221 225 227 224 219 214 213 215 217 221 225 229 233 235 236 236 236 235 235 234 232 229 226 224 225 224 224 224 224 226 227 227 229 232 234 235 234 235 236
264 262 259 258 258 260 258 256 254 250 249 250 250 250 252 256 260 253 240 231 226 224 225 224 222 224 229 231 228 221 217 217 218 219 222 226 230 233 234 236 237 238 239 239 237 236 233 231 230 230 229 228 228 229 230 230 232 235 237 237 236 233 230
263 261 260 258 257 259 260 258 254 250 247 248 250 251 252 254 258 254 243 235 230 228 227 226 224 223 226 231 233 228 222 220 219 221 222 224 227 229 231 232 235 237 239 240 239 238 237 234 233 233 232 232 232 233 232 230 230 233 236 239 241 241 237
265 260 259 258 256 256 259 259 255 249 246 246 248 249 251 252 253 252 246 240 237 233 229 228 228 225 223 226 230 231 229 225 221 221 223 225 226 227 228 230 232 234 237 239 240 240 239 238 237 236 235 234 234 234 232 229 227 230 233 236 241 243 242
265 261 258 258 255 252 253 256 256 250 245 246 247 247 248 250 250 250 248 245 244 238 230 228 229 228 224 223 226 231 233 232 227 224 224 226 228 229 229 229 230 232 235 237 239 240 240 240 241 241 240 239 239 238 236 234 233 234 236 238 241 243 244
266 261 258 258 256 251 248 249 253 251 245 245 246 245 246 247 248 248 248 246 247 242 231 228 229 228 224 224 226 230 233 234 233 230 227 228 230 232 232 231 230 231 233 234 236 237 239 241 243 245 245 244 244 244 242 240 240 241 243 246 248 248 250
270 263 258 256 255 253 247 245 248 251 249 247 247 246 246 247 247 248 249 249 250 246 234 227 227 226 224 223 225 229 233 234 236 236 234 232 232 233 234 234 233 233 233 234 235 236 237 239 242 244 245 245 245 245 244 243 242 243 246 250 252 253 255
277 269 261 256 254 252 249 245 245 248 251 249 248 247 245 246 247 247 249 251 252 250 237 226 223 223 222 221 223 229 233 235 236 239 238 237 237 238 238 237 237 237 236 236 236 238 240 242 243 245 245 246 245 244 244 243 243 244 246 249 253 255 257
285 278 269 260 255 252 249 246 243 245 249 250 250 249 246 246 246 245 247 250 253 254 240 225 221 221 220 221 225 229 232 233 233 236 237 237 239 243 244 243 241 241 241 240 239 239 241 244 246 246 247 248 247 245 245 245 245 246 249 252 255 257 259
291 285 277 268 261 255 250 246 242 241 245 248 249 250 248 246 244 244 245 247 253 256 239 223 219 220 220 224 231 233 234 234 231 231 233 235 236 239 242 244 245 245 245 245 244 243 243 244 246 246 246 247 248 249 250 250 249 249 251 254 257 260 262
295 291 282 274 266 260 253 247 242 240 241 244 246 248 248 245 243 242 242 243 250 253 233 219 218 221 224 229 234 236 237 236 233 233 236 238 238 238 238 241 244 246 246 246 245 243 242 243 246 247 247 247 248 250 252 252 251 252 255 258 261 264 265
297 293 286 277 269 262 256 250 244 240 239 240 242 243 245 245 242 241 240 238 242 245 230 218 218 223 229 235 239 240 240 238 236 238 241 243 243 242 240 239 242 244 244 244 243 243 242 242 242 244 246 247 248 248 250 251 252 255 259 261 264 266 267
298 294 288 280 272 264 258 253 247 241 239 240 240 240 243 245 241 238 237 236 237 240 234 223 220 224 230 235 240 242 242 240 240 240 242 245 247 246 244 242 241 241 240 240 242 245 244 242 240 241 243 246 249 249 248 250 253 256 259 261 264 266 268
297 294 288 280 272 265 261 256 250 244 241 241 240 239 240 242 240 236 234 233 234 236 237 233 228 228 232 236 240 243 244 244 243 242 243 247 249 249 248 245 243 241 239 237 240 244 246 243 241 240 241 244 248 249 247 250 253 255 258 261 264 267 270
295 292 286 278 270 265 262 258 252 245 242 242 242 239 238 241 242 235 229 228 229 231 235 237 235 235 238 242 245 246 247 248 249 248 248 249 249 248 247 247 247 245 240 235 236 242 245 244 241 240 241 244 247 249 248 250 253 255 258 262 266 270 274
295 291 283 274 266 262 261 258 253 248 244 243 243 240 237 240 243 238 231 227 226 226 230 233 234 236 239 243 247 247 245 245 247 247 247 249 249 246 244 244 244 244 241 236 236 240 243 242 240 241 243 245 246 246 247 250 253 257 261 264 268 271 272
297 290 281 271 261 258 259 257 253 249 246 243 242 241 238 238 242 242 236 231 227 225 227 230 233 237 242 245 247 248 246 245 248 246 243 244 244 243 241 239 239 242 242 238 237 240 242 240 239 240 242 243 244 246 250 255 259 261 261 263 266 267 268
296 287 278 269 258 253 255 256 253 249 245 242 239 237 235 236 239 240 236 231 231 232 231 233 236 242 246 243 241 242 243 242 245 248 245 241 239 240 241 239 239 242 243 241 241 242 240 237 237 238 240 243 248 252 257 260 261 262 261 261 262 262 264
293 284 275 267 257 251 252 253 250 244 238 234 232 230 229 229 232 234 232 229 230 233 233 233 235 239 240 239 237 239 241 237 236 242 245 244 243 245 245 244 242 242 242 242 241 240 238 238 239 241 244 250 255 257 258 258 259 261 263 262 261 261 262
291 282 273 266 259 253 253 251 242 233 227 224 222 223 222 222 224 225 224 224 224 226 225 220 221 224 226 228 232 235 237 238 238 242 246 249 250 251 251 250 249 246 244 242 241 240 241 245 247 249 253 257 259 260 260 260 261 262 262 262 262 263 264
288 280 270 266 262 256 259 254 234 221 218 215 214 215 213 213 216 216 215 218 219 221 221 216 213 212 212 216 221 226 230 235 240 245 247 247 250 252 251 253 255 253 249 247 246 245 246 249 252 255 258 259 259 259 260 261 262 262 262 263 263 264 267
286 277 266 265 264 259 262 258 228 212 208 203 204 208 206 206 209 206 207 212 213 215 220 219 214 204 200 208 211 213 225 230 229 234 240 239 239 238 236 238 241 240 241 244 246 246 246 248 252 253 252 253 256 258 260 261 263 264 264 266 265 264 266
283 272 259 259 262 257 258 259 235 213 204 198 199 204 205 205 204 198 199 199 196 201 209 209 207 204 204 213 212 207 215 215 199 192 204 213 215 217 217 219 222 223 227 232 235 236 234 234 238 242 246 251 257 259 260 260 261 261 261 262 263 261 262
279 266 252 251 254 250 250 252 241 224 214 210 209 209 209 211 207 203 202 192 176 186 192 181 180 192 197 203 207 205 208 207 194 189 195 200 205 210 211 213 216 219 222 222 218 216 215 217 224 233 240 246 250 252 253 252 252 253 254 257 259 259 260
276 262 249 246 246 245 248 243 230 221 221 223 220 215 216 218 214 209 209 201 188 190 189 174 171 188 192 193 201 204 207 210 210 210 212 214 220 221 214 211 210 211 215 217 217 220 223 227 236 243 248 253 257 260 260 258 258 258 260 262 265 266 266
277 261 246 240 237 240 246 237 220 214 218 219 218 216 216 218 218 214 211 207 201 197 194 187 187 195 198 204 212 213 214 218 221 226 228 230 236 238 236 235 233 229 232 234 237 243 248 251 255 259 263 266 269 270 271 272 272 273 274 275 277 278 279
280 263 244 233 227 231 239 233 221 218 219 217 217 219 218 217 220 219 213 208 205 202 202 202 203 205 213 222 230 238 245 245 243 249 252 255 265 274 279 286 286 279 275 271 268 267 266 265 266 267 267 268 269 271 273 276 278 280 282 283 283 284 285
283 264 244 232 226 229 236 230 221 218 220 218 217 219 220 220 222 222 217 211 209 210 214 217 221 226 236 251 266 274 276 273 267 265 268 275 284 289 293 298 296 290 286 281 276 273 270 269 268 268 268 269 270 272 273 275 277 278 280 281 283 284 285
286 266 247 235 232 237 241 232 222 218 219 219 217 216 218 219 221 223 224 223 223 226 228 230 237 247 254 261 268 274 278 280 277 273 271 272 276 279 284 287 286 282 279 275 272 270 269 268 267 267 268 270 272 274 276 277 278 279 280 281 283 285 287
Height
5872 5873 5874 5874 5874 5875 5876 5876 5877 5877 5878 5879 5880 5881 5883 5884 5885 5885 5885 5886 5888 5889 5890 5892 5894 5895 5896 5897 5898 5899 5899 5900 5901 5901 5902 5903 5903 5904 5904 5905 5905 5906 5907 5907 5908 5909 5909 5910 5911 5911 5912 5913 5913 5914 5915 5915 5915 5915 5916 5916 5916 5916 5916
5870 5871 5872 5873 5873 5874 5874 5875 5876 5876 5877 5878 5878 5879 5881 5882 5884 5884 5884 5884 5886 5887 5889 5890 5892 5894 5895 5896 5897 5898 5899 5900 5901 5901 5902 5903 5904 5904 5905 5905 5905 5906 5907 5907 5908 5908 5909 5909 5910 5911 5911 5912 5913 5914 5914 5915 5915 5915 5915 5915 5916 5916 5916
5868 5869 5870 5871 5872 5872 5873 5873 5874 5875 5875 5876 5877 5878 5879 5880 5882 5883 5883 5884 5884 5885 5887 5888 5890 5892 5894 5895 5897 5898 5899 5899 5900 5901 5902 5903 5904 5904 5905 5905 5906 5906 5907 5907 5908 5908 5908 5908 5909 5910 5910 5911 5912 5913 5914 5914 5915 5915 5915 5915 5916 5916 5916
5864 5865 5867 5869 5870 5870 5871 5871 5872 5873 5873 5873 5875 5877 5878 5879 5880 5880 5881 5883 5884 5884 5885 5886 5888 5889 5892 5894 5895 5897 5898 5899 5900 5901 5902 5903 5904 5905 5905 5906 5906 5907 5907 5907 5907 5907 5907 5908 5909 5909 5910 5911 5912 5912 5913 5914 5914 5914 5915 5915 5915 5916 5916
5860 5862 5863 5865 5867 5868 5869 5869 5870 5870 5871 5872 5873 5874 5876 5878 5878 5878 5879 5880 5882 5884 5884 5885 5886 5887 5889 5891 5893 5895 5897 5898 5900 5901 5902 5903 5904 5905 5905 5905 5906 5906 5906 5907 5907 5907 5907 5908 5909 5910 5910 5911 5912 5912 5913 5913 5913 5914 5914 5915 5915 5915 5916
5858 5859 5860 5861 5863 5865 5866 5867 5868 5869 5869 5870 5872 5873 5874 5875 5876 5877 5877 5878 5879 5881 5883 5884 5886 5886 5887 5889 5891 5894 5896 5897 5899 5900 5901 5902 5903 5904 5904 5905 5905 5906 5906 5906 5907 5907 5908 5909 5909 5910 5910 5911 5911 5912 5912 5913 5913 5914 5914 5915 5915 5915 5916
5857 5857 5858 5859 5860 5861 5863 5864 5866 5867 5868 5869 5870 5871 5872 5872 5874 5875 5876 5878 5878 5879 5881 5883 5885 5886 5886 5887 5889 5891 5893 5896 5897 5899 5900 5901 5902 5903 5904 5905 5905 5905 5906 5906 5907 5907 5908 5909 5909 5909 5910 5910 5910 5911 5912 5912 5913 5914 5914 5915 5915 5916 5916
5855 5855 5856 5856 5858 5859 5860 5861 5863 5865 5866 5867 5868 5869 5869 5870 5870 5872 5875 5876 5877 5877 5878 5881 5883 5884 5884 5885 5886 5888 5890 5892 5895 5897 5898 5900 5901 5902 5903 5904 5905 5905 5906 5906 5907 5907 5908 5908 5908 5908 5909 5909 5910 5910 5911 5912 5913 5914 5914 5915 5916 5916 5916
5853 5853 5853 5854 5855 5856 5857 5858 5860 5862 5864 5865 5865 5866 5867 5867 5868 5869 5872 5874 5875 5876 5877 5878 5879 5882 5883 5883 5884 5885 5887 5889 5891 5893 5896 5898 5899 5901 5902 5903 5904 5905 5905 5906 5906 5907 5907 5907 5908 5908 5908 5909 5909 5910 5911 5911 5912 5913 5914 5914 5915 5915 5915
5850 5851 5851 5851 5852 5853 5855 5856 5857 5859 5861 5862 5863 5863 5864 5865 5865 5866 5868 5870 5873 5874 5875 5875 5876 5879 5881 5882 5882 5882 5884 5886 5888 5890 5893 5895 5897 5899 5900 5901 5903 5903 5904 5905 5905 5906 5906 5906 5907 5907 5908 5908 5908 5909 5909 5910 5911 5911 5912 5912 5912 5913 5913
5847 5847 5848 5848 5849 5850 5851 5853 5854 5856 5857 5859 5859 5860 5861 5862 5862 5863 5864 5866 5869 5871 5871 5872 5874 5875 5878 5881 5881 5881 5882 5883 5885 5887 5889 5892 5894 5896 5897 5899 5900 5901 5902 5903 5903 5904 5905 5905 5906 5906 5906 5907 5907 5907 5908 5909 5910 5910 5910 5910 5910 5910 5911
5844 5844 5844 5845 5846 5847 5848 5849 5851 5852 5854 5855 5856 5857 5858 5858 5859 5860 5860 5862 5865 5867 5868 5870 5871 5872 5874 5877 5880 5880 5880 5880 5882 5884 5886 5888 5890 5892 5893 5895 5897 5898 5899 5900 5901 5902 5903 5904 5904 5904 5904 5905 5905 5906 5907 5907 5908 5908 5908 5908 5908 5909 5909
5841 5841 5841 5842 5843 5844 5845 5846 5847 5849 5849 5851 5852 5853 5854 5854 5855 5856 5857 5858 5860 5863 5865 5867 5868 5869 5870 5873 5875 5878 5879 5879 5879 5881 5883 5885 5886 5888 5890 5892 5893 5894 5895 5897 5898 5900 5901 5901 5901 5901 5902 5903 5903 5904 5904 5905 5905 5905 5905 5905 5906 5907 5907
5837 5837 5838 5838 5839 5841 5841 5842 5843 5845 5846 5846 5848 5849 5850 5851 5851 5853 5854 5855 5856 5859 5861 5863 5864 5866 5868 5869 5871 5873 5876 5877 5877 5877 5879 5881 5883 5885 5887 5888 5889 5890 5891 5893 5895 5897 5898 5898 5899 5899 5900 5900 5901 5901 5902 5903 5903 5902 5902 5903 5903 5904 5905
5834 5834 5834 5834 5835 5837 5838 5839 5840 5841 5842 5843 5844 5845 5846 5847 5847 5848 5850 5851 5852 5854 5856 5858 5860 5863 5865 5866 5868 5870 5872 5874 5875 5876 5876 5878 5880 5882 5883 5885 5886 5887 5888 5889 5891 5893 5894 5895 5896 5896 5897 5897 5898 5899 5899 5900 5900 5900 5900 5900 5900 5901 5901
5831 5831 5831 5831 5831 5833 5834 5835 5836 5838 5839 5839 5840 5841 5842 5843 5843 5844 5846 5847 5848 5850 5851 5854 5856 5859 5862 5864 5865 5866 5868 5871 5873 5874 5875 5875 5877 5879 5880 5881 5882 5883 5885 5886 5887 5889 5890 5892 5893 5894 5894 5894 5895 5895 5896 5896 5896 5897 5897 5898 5898 5898 5899
5828 5828 5828 5827 5828 5828 5830 5832 5833 5834 5835 5836 5837 5838 5839 5839 5840 5841 5842 5843 5844 5845 5846 5848 5852 5855 5858 5860 5862 5863 5865 5868 5871 5872 5873 5874 5875 5876 5877 5878 5880 5881 5882 5883 5885 5886 5888 5889 5890 5891 5891 5891 5891 5892 5892 5893 5893 5893 5894 5895 5896 5896 5896
5825 5825 5824 5824 5824 5825 5826 5828 5830 5831 5832 5833 5834 5834 5835 5836 5837 5837 5838 5839 5840 5840 5841 5844 5847 5850 5854 5857 5858 5860 5862 5864 5866 5868 5870 5871 5872 5873 5874 5875 5877 5878 5880 5881 5883 5884 5885 5886 5887 5888 5888 5888 5888 5888 5888 5889 5890 5890 5891 5892 5893 5893 5894
5822 5822 5821 5820 5820 5821 5822 5824 5826 5827 5828 5829 5830 5831 5832 5832 5833 5834 5835 5836 5837 5837 5838 5840 5844 5847 5851 5853 5854 5856 5858 5859 5861 5863 5865 5865 5866 5867 5869 5871 5874 5876 5878 5880 5881 5882 5882 5883 5884 5884 5884 5885 5886 5886 5886 5887 5887 5888 5888 5889 5889 5890 5891
5819 5818 5818 5817 5817 5818 5818 5820 5822 5823 5824 5825 5827 5828 5828 5829 5829 5831 5832 5833 5834 5835 5835 5838 5841 5844 5847 5849 5850 5851 5853 5854 5856 5858 5860 5860 5861 5862 5865 5867 5871 5873 5875 5877 5877 5877 5878 5879 5880 5880 5881 5882 5883 5883 5884 5885 5885 5885 5885 5885 5886 5887 5887
5816 5815 5814 5814 5814 5815 5815 5816 5817 5819 5820 5821 5823 5824 5826 5826 5826 5827 5829 5830 5831 5833 5834 5836 5839 5842 5845 5846 5847 5849 5851 5853 5854 5855 5856 5856 5858 5860 5862 5864 5867 5869 5871 5872 5872 5872 5872 5873 5874 5876 5878 5879 5879 5879 5880 5881 5881 5881 5882 5882 5882 5883 5883
5813 5812 5811 5811 5811 5811 5812 5812 5814 5815 5816 5818 5819 5821 5823 5824 5824 5824 5825 5827 5828 5830 5832 5834 5837 5840 5841 5842 5843 5845 5848 5850 5851 5852 5852 5853 5855 5857 5858 5860 5862 5864 5865 5866 5867 5868 5867 5867 5869 5872 5875 5875 5875 5875 5876 5877 5878 5878 5879 5879 5879 5879 5879
5811 5809 5808 5808 5808 5808 5809 5809 5810 5812 5813 5814 5816 5818 5819 5821 5822 5822 5823 5824 5825 5827 5830 5832 5834 5836 5837 5838 5839 5842 5844 5845 5846 5847 5849 5850 5852 5854 5854 5855 5857 5859 5860 5861 5862 5862 5861 5863 5867 5870 5871 5871 5872 5872 5873 5874 5874 5874 5875 5875 5876 5876 5875
5808 5806 5805 5805 5805 5805 5806 5806 5807 5809 5810 5811 5812 5814 5816 5818 5819 5820 5821 5822 5823 5825 5827 5829 5831 5832 5833 5835 5837 5839 5840 5840 5841 5843 5846 5847 5848 5849 5849 5850 5852 5854 5856 5857 5857 5856 5856 5859 5863 5866 5866 5867 5868 5868 5869 5870 5871 5870 5871 5872 5872 5872 5873
5806 5804 5803 5802 5802 5802 5803 5804 5804 5806 5807 5808 5809 5810 5813 5815 5817 5818 5818 5819 5820 5822 5824 5826 5828 5828 5829 5832 5833 5835 5835 5835 5836 5839 5841 5841 5842 5842 5843 5844 5846 5848 5850 5851 5853 5853 5853 5855 5858 5861 5862 5863 5864 5864 5865 5866 5866 5867 5867 5868 5869 5869 5869
5803 5802 5800 5800 5800 5800 5801 5801 5802 5803 5804 5805 5806 5807 5810 5812 5814 5814 5815 5816 5817 5819 5821 5824 5825 5826 5827 5829 5830 5831 5831 5831 5833 5834 5834 5834 5835 5836 5837 5838 5840 5842 5844 5847 5848 5849 5850 5852 5854 5856 5857 5858 5859 5860 5861 5861 5862 5863 5864 5865 5866 5866 5865
5801 5800 5798 5798 5798 5798 5799 5799 5800 5800 5801 5802 5803 5805 5807 5809 5811 5812 5813 5814 5815 5817 5819 5821 5822 5824 5825 5826 5827 5827 5827 5829 5831 5829 5827 5828 5829 5830 5832 5833 5835 5837 5840 5842 5844 5845 5847 5848 5850 5851 5853 5854 5855 5856 5856 5857 5858 5859 5860 5861 5862 5862 5861
5799 5798 5797 5796 5796 5796 5797 5797 5797 5798 5799 5800 5801 5802 5804 5806 5808 5810 5811 5812 5813 5815 5816 5818 5819 5821 5822 5824 5824 5824 5824 5826 5827 5824 5822 5823 5825 5826 5828 5829 5831 5833 5835 5837 5839 5841 5843 5844 5846 5848 5849 5851 5852 5852 5853 5854 5855 5856 5857 5857 5858 5858 5858
5797 5795 5795 5794 5794 5794 5795 5795 5796 5796 5797 5797 5798 5800 5802 5804 5806 5808 5809 5810 5812 5812 5813 5814 5816 5817 5819 5820 5821 5821 5820 5821 5821 5820 5819 5821 5822 5823 5825 5826 5828 5830 5832 5834 5836 5838 5839 5841 5842 5844 5845 5846 5847 5848 5849 5850 5850 5851 5852 5853 5854 5854 5854
5794 5793 5793 5792 5792 5792 5793 5793 5793 5794 5795 5796 5797 5798 5801 5802 5804 5805 5807 5808 5809 5810 5810 5811 5812 5814 5816 5817 5817 5816 5816 5816 5817 5818 5818 5819 5820 5822 5823 5824 5825 5826 5828 5830 5832 5833 5835 5836 5838 5839 5841 5842 5842 5843 5844 5845 5845 5846 5847 5848 5849 5849 5849
5792 5791 5791 5790 5790 5790 5791 5791 5791 5792 5793 5795 5796 5798 5800 5801 5802 5803 5804 5805 5806 5807 5808 5808 5810 5812 5814 5814 5813 5814 5814 5814 5815 5815 5815 5816 5817 5819 5820 5821 5821 5823 5824 5826 5827 5828 5830 5832 5834 5834 5835 5836 5837 5838 5839 5840 5841 5842 5842 5843 5844 5845 5844
5790 5789 5789 5788 5788 5789 5789 5790 5791 5791 5792 5793 5795 5796 5798 5799 5800 5801 5802 5803 5805 5806 5806 5807 5808 5810 5810 5810 5811 5812 5812 5812 5812 5812 5812 5813 5814 5815 5816 5817 5818 5819 5821 5822 5823 5824 5826 5828 5829 5830 5831 5832 5833 5834 5835 5836 5837 5838 5838 5839 5839 5840 5841
5787 5787 5787 5787 5787 5787 5788 5789 5790 5791 5791 5792 5794 5795 5796 5798 5799 5800 5801 5803 5804 5804 5804 5805 5806 5807 5807 5807 5808 5809 5809 5810 5811 5810 5810 5810 5811 5812 5813 5814 5815 5816 5818 5819 5820 5821 5823 5824 5825 5827 5828 5829 5830 5831 5832 5833 5834 5834 5834 5835 5835 5835 5836
5785 5785 5786 5786 5786 5786 5787 5788 5789 5790 5791 5792 5793 5795 5796 5797 5798 5799 5800 5801 5802 5802 5803 5803 5804 5805 5805 5805 5806 5806 5807 5808 5809 5809 5809 5809 5810 5810 5811 5812 5813 5814 5815 5816 5817 5819 5820 5821 5822 5824 5825 5826 5827 5828 5829 5830 5831 5831 5831 5831 5831 5831 5831
5783 5783 5784 5785 5785 5785 5786 5787 5788 5789 5790 5791 5792 5794 5795 5796 5797 5798 5799 5800 5801 5802 5802 5803 5804 5804 5805 5805 5806 5806 5806 5807 5807 5808 5808 5809 5809 5810 5811 5811 5812 5813 5813 5814 5815 5816 5818 5819 5820 5821 5822 5824 5824 5825 5826 5827 5827 5828 5828 5828 5828 5827 5827
5782 5782 5782 5783 5784 5785 5786 5787 5787 5788 5789 5790 5791 5792 5794 5795 5796 5797 5798 5799 5800 5801 5802 5803 5804 5804 5805 5805 5806 5806 5806 5807 5807 5808 5808 5809 5809 5810 5810 5811 5812 5812 5813 5814 5815 5816 5817 5818 5819 5820 5820 5821 5822 5823 5823 5824 5824 5824 5824 5824 5824 5824 5824
5780 5780 5781 5782 5782 5783 5785 5786 5786 5787 5788 5789 5790 5791 5793 5794 5796 5797 5798 5799 5800 5801 5802 5802 5803 5804 5805 5805 5806 5806 5807 5807 5807 5807 5808 5808 5809 5810 5811 5811 5812 5813 5813 5814 5815 5815 5816 5817 5817 5818 5819 5819 5820 5820 5820 5820 5821 5821 5821 5821 5821 5821 5820
5779 5779 5779 5780 5781 5782 5783 5784 5785 5786 5788 5789 5790 5791 5792 5794 5795 5796 5798 5799 5799 5800 5801 5802 5803 5804 5804 5805 5806 5806 5806 5806 5807 5807 5808 5808 5809 5810 5811 5812 5812 5813 5813 5814 5814 5815 5815 5815 5816 5816 5816 5817 5817 5817 5817 5817 5818 5818 5818 5818 5818 5818 5817